This is the latest recevied weather packets stored in our database for station/object W8DRH-13. If no packets are shown the sender has not sent any weather packets the latest 10 day(s).
| Time | Temp. | Humidity | Pressure | Rain* | Wind** | Luminosity | Snow |
|---|---|---|---|---|---|---|---|
| 1777462839 | 11.11° C | 95% | 1008.9 hPa | 3.05 mm | - | 0 W/m² | - |
| 1777462534 | 11.67° C | 95% | 1008.7 hPa | 1.78 mm | - | 10 W/m² | - |
| 1777462231 | 11.67° C | 95% | 1008.7 hPa | 1.78 mm | - | 11 W/m² | - |
| 1777461927 | 11.67° C | 95% | 1008.2 hPa | 1.78 mm | - | 5 W/m² | - |
| 1777461624 | 11.11° C | 95% | 1008.2 hPa | 0 mm | - | 3 W/m² | - |
| 1777461319 | 11.11° C | 95% | 1007.8 hPa | 0 mm | - | 2 W/m² | - |
| 1777461015 | 11.11° C | 95% | 1008.1 hPa | 0 mm | - | 6 W/m² | - |
| 1777460705 | 11.11° C | 95% | 1007.8 hPa | 0 mm | - | 7 W/m² | - |
| 1777460401 | 11.11° C | 95% | 1007.3 hPa | 0 mm | - | 7 W/m² | - |
| 1777460096 | 11.11° C | 95% | 1007.2 hPa | 0 mm | - | 5 W/m² | - |
| 1777459794 | 11.11° C | 95% | 1007.3 hPa | 0 mm | - | 2 W/m² | - |
| 1777459491 | 11.67° C | 94% | 1007.4 hPa | 0 mm | - | 0 W/m² | - |
| 1777459188 | 11.67° C | 94% | 1007.5 hPa | 0 mm | - | 0 W/m² | - |
| 1777458880 | 11.67° C | 94% | 1007.7 hPa | 0 mm | - | 0 W/m² | - |
| 1777458576 | 11.67° C | 94% | 1008.1 hPa | 0 mm | - | 0 W/m² | - |
| 1777458267 | 11.67° C | 93% | 1008.4 hPa | 1.27 mm | - | 0 W/m² | - |
| 1777457963 | 11.67° C | 93% | 1008.5 hPa | 3.05 mm | - | 0 W/m² | - |
| 1777457658 | 11.67° C | 93% | 1008.9 hPa | 1.78 mm | - | 0 W/m² | - |
| 1777457353 | 11.67° C | 93% | 1008.8 hPa | 0 mm | - | 0 W/m² | - |
| 1777457049 | 11.67° C | 93% | 1008.9 hPa | 0 mm | - | 0 W/m² | - |
| 1777456744 | 11.67° C | 92% | 1009.1 hPa | 0 mm | - | 0 W/m² | - |
| 1777456444 | 11.67° C | 92% | 1009 hPa | 0 mm | - | 0 W/m² | - |
| 1777456142 | 11.67° C | 92% | 1009.2 hPa | 0 mm | - | 0 W/m² | - |
| 1777455836 | 11.67° C | 92% | 1008.9 hPa | 1.27 mm | - | 0 W/m² | - |
| 1777455534 | 11.67° C | 91% | 1008.9 hPa | 1.27 mm | - | 0 W/m² | - |
* Rain latest hour (hover to see other rain measurements)
** Current wind speed in m/s (hover to see current wind gust speed)